Time,TemperatureF,DewpointF,PressureIn,WindDirection,WindDirectionDegrees,WindSpeedMPH,WindSpeedGustMPH,Humidity,HourlyPrecipIn,Conditions,Clouds,dailyrainin,SoftwareType,DateUTC
2013-04-13 00:02:00,52.0,48.0,30.02,West,278,0.0,0.0,86,0.00,,,0.00,,2013-04-13 05:02:00,
2013-04-13 00:12:00,52.0,48.0,30.02,West,278,0.0,0.0,86,0.00,,,0.00,,2013-04-13 05:12:00,
2013-04-13 00:22:00,52.0,47.0,30.02,West,277,0.0,0.0,83,0.00,,,0.00,,2013-04-13 05:22:00,
2013-04-13 00:32:00,53.0,48.0,30.02,West,278,0.0,0.0,82,0.00,,,0.00,,2013-04-13 05:32:00,
2013-04-13 00:42:00,53.0,48.0,30.02,West,278,0.0,0.0,82,0.00,,,0.00,,2013-04-13 05:42:00,
2013-04-13 00:52:00,53.0,48.0,30.02,West,278,0.0,0.0,83,0.00,,,0.00,,2013-04-13 05:52:00,
2013-04-13 01:02:00,53.0,48.0,30.02,West,277,0.0,0.0,83,0.00,,,0.00,,2013-04-13 06:02:00,
2013-04-13 01:12:00,53.0,48.0,30.02,West,277,0.0,0.0,83,0.00,,,0.00,,2013-04-13 06:12:00,
2013-04-13 01:23:00,52.0,47.0,30.02,West,278,0.0,0.0,83,0.00,,,0.00,,2013-04-13 06:23:00,
2013-04-13 01:34:00,52.0,47.0,30.01,West,278,0.0,0.0,84,0.00,,,0.00,,2013-04-13 06:34:00,
2013-04-13 01:46:00,52.0,47.0,30.01,West,278,0.0,0.0,84,0.00,,,0.00,,2013-04-13 06:46:00,
2013-04-13 01:55:00,52.0,47.0,30.01,West,278,0.0,0.0,83,0.00,,,0.00,,2013-04-13 06:55:00,
2013-04-13 02:04:00,52.0,47.0,30.01,West,277,0.0,0.0,84,0.00,,,0.00,,2013-04-13 07:04:00,
2013-04-13 02:14:00,52.0,47.0,30.01,West,277,0.0,0.0,84,0.00,,,0.00,,2013-04-13 07:14:00,
2013-04-13 02:24:00,52.0,47.0,30.01,West,277,0.0,0.0,84,0.00,,,0.00,,2013-04-13 07:24:00,
2013-04-13 02:34:00,52.0,47.0,30.01,West,278,0.0,0.0,83,0.00,,,0.00,,2013-04-13 07:34:00,
2013-04-13 02:44:00,52.0,47.0,30.01,West,278,0.0,0.0,83,0.00,,,0.00,,2013-04-13 07:44:00,
2013-04-13 02:56:00,52.0,47.0,30.01,West,278,0.0,0.0,83,0.00,,,0.00,,2013-04-13 07:56:00,
2013-04-13 03:06:00,51.0,46.0,30.00,West,277,0.0,0.0,82,0.00,,,0.00,,2013-04-13 08:06:00,
2013-04-13 03:15:00,51.0,46.0,30.00,West,277,0.0,0.0,82,0.00,,,0.00,,2013-04-13 08:15:00,
2013-04-13 03:25:00,52.0,47.0,30.00,WNW,283,0.0,0.0,82,0.00,,,0.00,,2013-04-13 08:25:00,
2013-04-13 03:34:00,52.0,46.0,30.01,WNW,283,0.0,0.0,81,0.00,,,0.00,,2013-04-13 08:34:00,
2013-04-13 03:45:00,52.0,46.0,30.01,WNW,283,0.0,0.0,81,0.00,,,0.00,,2013-04-13 08:45:00,
2013-04-13 03:53:00,52.0,46.0,30.01,WNW,283,0.0,0.0,80,0.00,,,0.00,,2013-04-13 08:53:00,
2013-04-13 04:05:00,51.0,46.0,30.00,WNW,283,0.0,0.0,83,0.00,,,0.00,,2013-04-13 09:05:00,
2013-04-13 04:14:00,51.0,46.0,30.00,WNW,283,0.0,0.0,83,0.00,,,0.00,,2013-04-13 09:14:00,
2013-04-13 04:24:00,51.0,47.0,30.00,North,351,0.0,1.0,85,0.00,,,0.00,,2013-04-13 09:24:00,
2013-04-13 04:36:00,51.0,46.0,30.00,North,351,0.0,0.0,83,0.00,,,0.00,,2013-04-13 09:36:00,
2013-04-13 04:49:00,51.0,46.0,30.00,North,351,0.0,0.0,83,0.00,,,0.00,,2013-04-13 09:49:00,
2013-04-13 05:05:00,51.0,46.0,30.00,North,351,0.0,0.0,83,0.00,,,0.00,,2013-04-13 10:05:00,
2013-04-13 05:15:00,51.0,47.0,30.00,North,352,0.0,0.0,86,0.00,,,0.00,,2013-04-13 10:15:00,
2013-04-13 05:24:00,51.0,47.0,30.00,North,352,0.0,0.0,86,0.00,,,0.00,,2013-04-13 10:24:00,
2013-04-13 05:36:00,50.0,47.0,30.00,North,354,0.0,1.0,90,0.00,,,0.00,,2013-04-13 10:36:00,
2013-04-13 05:45:00,50.0,47.0,30.00,North,354,0.0,1.0,90,0.00,,,0.00,,2013-04-13 10:45:00,
2013-04-13 05:53:00,49.0,46.0,30.01,North,354,0.0,0.0,89,0.00,,,0.00,,2013-04-13 10:53:00,
2013-04-13 06:05:00,49.0,46.0,30.01,North,354,0.0,0.0,89,0.00,,,0.00,,2013-04-13 11:05:00,
2013-04-13 06:13:00,49.0,46.0,30.01,North,354,0.0,0.0,89,0.00,,,0.00,,2013-04-13 11:13:00,
2013-04-13 06:24:00,49.0,45.0,30.01,North,354,0.0,0.0,87,0.00,,,0.00,,2013-04-13 11:24:00,
2013-04-13 06:33:00,48.0,45.0,30.01,North,354,0.0,0.0,90,0.00,,,0.00,,2013-04-13 11:33:00,
2013-04-13 06:44:00,48.0,45.0,30.01,North,354,0.0,0.0,90,0.00,,,0.00,,2013-04-13 11:44:00,
2013-04-13 06:54:00,48.0,45.0,30.02,North,354,0.0,0.0,90,0.00,,,0.00,,2013-04-13 11:54:00,
2013-04-13 07:08:00,48.0,45.0,30.02,North,354,0.0,0.0,90,0.00,,,0.00,,2013-04-13 12:08:00,
2013-04-13 07:14:00,48.0,45.0,30.02,North,354,0.0,0.0,90,0.00,,,0.00,,2013-04-13 12:14:00,
2013-04-13 07:24:00,48.0,45.0,30.02,North,354,0.0,0.0,90,0.00,,,0.00,,2013-04-13 12:24:00,
2013-04-13 07:35:00,48.0,45.0,30.03,SE,143,0.0,1.0,88,0.00,,,0.00,,2013-04-13 12:35:00,
2013-04-13 07:54:00,50.0,46.0,30.03,SE,143,0.0,0.0,85,0.00,,,0.00,,2013-04-13 12:54:00,
2013-04-13 08:05:00,52.0,47.0,30.03,SE,143,0.0,1.0,83,0.00,,,0.00,,2013-04-13 13:05:00,
2013-04-13 08:15:00,52.0,47.0,30.03,SE,143,0.0,1.0,83,0.00,,,0.00,,2013-04-13 13:15:00,
2013-04-13 08:27:00,55.0,48.0,30.04,ESE,115,0.0,1.0,78,0.00,,,0.00,,2013-04-13 13:27:00,
2013-04-13 08:34:00,56.0,49.0,30.05,ESE,106,0.0,1.0,76,0.00,,,0.00,,2013-04-13 13:34:00,
2013-04-13 08:47:00,56.0,49.0,30.05,ESE,106,0.0,1.0,76,0.00,,,0.00,,2013-04-13 13:47:00,
2013-04-13 08:53:00,58.0,49.0,30.05,ESE,108,1.0,3.0,73,0.00,,,0.00,,2013-04-13 13:53:00,
2013-04-13 09:04:00,59.0,50.0,30.06,ESE,104,0.0,2.0,73,0.00,,,0.00,,2013-04-13 14:04:00,
2013-04-13 09:14:00,59.0,50.0,30.06,ESE,104,0.0,2.0,73,0.00,,,0.00,,2013-04-13 14:14:00,
2013-04-13 09:23:00,61.0,51.0,30.06,East,81,1.0,3.0,69,0.00,,,0.00,,2013-04-13 14:23:00,
2013-04-13 09:37:00,62.0,52.0,30.06,ESE,121,1.0,3.0,70,0.00,,,0.00,,2013-04-13 14:37:00,
2013-04-13 09:45:00,62.0,52.0,30.06,ESE,121,1.0,3.0,70,0.00,,,0.00,,2013-04-13 14:45:00,
2013-04-13 09:55:00,64.0,51.0,30.06,ESE,117,1.0,4.0,63,0.00,,,0.00,,2013-04-13 14:55:00,
2013-04-13 10:04:00,66.0,52.0,30.06,East,84,1.0,4.0,60,0.00,,,0.00,,2013-04-13 15:04:00,
2013-04-13 10:14:00,66.0,52.0,30.06,East,84,1.0,4.0,60,0.00,,,0.00,,2013-04-13 15:14:00,
2013-04-13 10:28:00,67.0,50.0,30.06,ENE,75,1.0,5.0,54,0.00,,,0.00,,2013-04-13 15:28:00,
2013-04-13 10:35:00,68.0,53.0,30.06,SE,131,0.0,3.0,58,0.00,,,0.00,,2013-04-13 15:35:00,
2013-04-13 10:44:00,68.0,53.0,30.06,SE,131,0.0,3.0,58,0.00,,,0.00,,2013-04-13 15:44:00,
2013-04-13 10:58:00,69.0,51.0,30.06,ESE,107,0.0,4.0,52,0.00,,,0.00,,2013-04-13 15:58:00,
2013-04-13 11:05:00,69.0,51.0,30.06,ESE,107,0.0,4.0,52,0.00,,,0.00,,2013-04-13 16:05:00,
2013-04-13 11:15:00,69.0,51.0,30.06,ESE,107,0.0,4.0,52,0.00,,,0.00,,2013-04-13 16:15:00,
2013-04-13 11:24:00,70.0,50.0,30.06,SE,124,3.0,7.0,50,0.00,,,0.00,,2013-04-13 16:24:00,
2013-04-13 11:35:00,72.0,49.0,30.05,ESE,119,4.0,7.0,44,0.00,,,0.00,,2013-04-13 16:35:00,
2013-04-13 11:45:00,72.0,49.0,30.05,ESE,119,4.0,7.0,44,0.00,,,0.00,,2013-04-13 16:45:00,
2013-04-13 11:53:00,72.0,49.0,30.05,ESE,105,3.0,9.0,44,0.00,,,0.00,,2013-04-13 16:53:00,
2013-04-13 12:20:00,73.0,50.0,30.05,ENE,77,3.0,10.0,44,0.00,,,0.00,,2013-04-13 17:20:00,
2013-04-13 12:37:00,74.0,49.0,30.03,ESE,115,2.0,9.0,42,0.00,,,0.00,,2013-04-13 17:37:00,
2013-04-13 12:44:00,74.0,49.0,30.03,ESE,115,2.0,9.0,42,0.00,,,0.00,,2013-04-13 17:44:00,
2013-04-13 12:58:00,75.0,46.0,30.03,NNE,30,1.0,5.0,36,0.00,,,0.00,,2013-04-13 17:58:00,
2013-04-13 13:05:00,75.0,47.0,30.02,ESE,102,3.0,6.0,37,0.00,,,0.00,,2013-04-13 18:05:00,
2013-04-13 13:15:00,75.0,47.0,30.02,ESE,102,3.0,6.0,37,0.00,,,0.00,,2013-04-13 18:15:00,
2013-04-13 13:24:00,76.0,48.0,30.02,East,93,2.0,9.0,37,0.00,,,0.00,,2013-04-13 18:24:00,
2013-04-13 13:33:00,77.0,47.0,30.01,SE,127,2.0,6.0,35,0.00,,,0.00,,2013-04-13 18:33:00,
2013-04-13 13:42:00,77.0,47.0,30.01,SE,127,2.0,6.0,35,0.00,,,0.00,,2013-04-13 18:42:00,
2013-04-13 14:03:00,77.0,49.0,29.99,SE,125,2.0,7.0,38,0.00,,,0.00,,2013-04-13 19:03:00,
2013-04-13 14:12:00,77.0,49.0,29.99,SE,125,2.0,7.0,38,0.00,,,0.00,,2013-04-13 19:12:00,
2013-04-13 14:22:00,78.0,47.0,29.99,ENE,70,2.0,5.0,33,0.00,,,0.00,,2013-04-13 19:22:00,
2013-04-13 14:32:00,79.0,50.0,29.97,East,94,3.0,5.0,37,0.00,,,0.00,,2013-04-13 19:32:00,
2013-04-13 14:42:00,79.0,50.0,29.97,East,94,3.0,5.0,37,0.00,,,0.00,,2013-04-13 19:42:00,
2013-04-13 14:53:00,79.0,47.0,29.96,SE,139,1.0,5.0,33,0.00,,,0.00,,2013-04-13 19:53:00,
2013-04-13 15:02:00,78.0,47.0,29.95,ENE,75,3.0,6.0,34,0.00,,,0.00,,2013-04-13 20:02:00,
2013-04-13 15:12:00,78.0,47.0,29.95,ENE,75,3.0,6.0,34,0.00,,,0.00,,2013-04-13 20:12:00,
2013-04-13 15:22:00,78.0,48.0,29.94,ESE,108,2.0,5.0,35,0.00,,,0.00,,2013-04-13 20:22:00,
2013-04-13 15:32:00,78.0,48.0,29.94,ESE,108,2.0,5.0,35,0.00,,,0.00,,2013-04-13 20:32:00,
2013-04-13 15:42:00,78.0,48.0,29.94,ESE,108,2.0,5.0,35,0.00,,,0.00,,2013-04-13 20:42:00,
2013-04-13 15:52:00,78.0,47.0,29.93,ESE,107,3.0,6.0,33,0.00,,,0.00,,2013-04-13 20:52:00,
2013-04-13 16:02:00,79.0,50.0,29.92,East,92,2.0,5.0,37,0.00,,,0.00,,2013-04-13 21:02:00,
2013-04-13 16:12:00,79.0,50.0,29.92,East,92,2.0,5.0,37,0.00,,,0.00,,2013-04-13 21:12:00,
2013-04-13 16:22:00,79.0,48.0,29.92,NE,53,2.0,4.0,34,0.00,,,0.00,,2013-04-13 21:22:00,
2013-04-13 16:33:00,80.0,48.0,29.91,ESE,106,3.0,8.0,33,0.00,,,0.00,,2013-04-13 21:33:00,
2013-04-13 16:43:00,80.0,48.0,29.91,ESE,106,3.0,8.0,33,0.00,,,0.00,,2013-04-13 21:43:00,
2013-04-13 16:52:00,79.0,52.0,29.91,ESE,105,1.0,5.0,39,0.00,,,0.00,,2013-04-13 21:52:00,
2013-04-13 17:03:00,79.0,50.0,29.90,SE,128,2.0,7.0,36,0.00,,,0.00,,2013-04-13 22:03:00,
2013-04-13 17:12:00,79.0,50.0,29.90,SE,128,2.0,7.0,36,0.00,,,0.00,,2013-04-13 22:12:00,
2013-04-13 17:22:00,79.0,47.0,29.90,ESE,106,2.0,4.0,33,0.00,,,0.00,,2013-04-13 22:22:00,
2013-04-13 17:33:00,78.0,51.0,29.90,East,84,3.0,7.0,39,0.00,,,0.00,,2013-04-13 22:33:00,
2013-04-13 17:42:00,78.0,51.0,29.90,East,84,3.0,7.0,39,0.00,,,0.00,,2013-04-13 22:42:00,
2013-04-13 17:52:00,78.0,50.0,29.90,East,91,1.0,5.0,37,0.00,,,0.00,,2013-04-13 22:52:00,
2013-04-13 18:02:00,77.0,48.0,29.90,East,101,2.0,3.0,36,0.00,,,0.00,,2013-04-13 23:02:00,
2013-04-13 18:12:00,77.0,48.0,29.90,East,101,2.0,3.0,36,0.00,,,0.00,,2013-04-13 23:12:00,
2013-04-13 18:22:00,76.0,52.0,29.90,ESE,115,1.0,5.0,43,0.00,,,0.00,,2013-04-13 23:22:00,
2013-04-13 18:32:00,74.0,54.0,29.90,East,101,1.0,5.0,50,0.00,,,0.00,,2013-04-13 23:32:00,
2013-04-13 18:42:00,74.0,54.0,29.90,East,101,1.0,5.0,50,0.00,,,0.00,,2013-04-13 23:42:00,
2013-04-13 18:53:00,73.0,56.0,29.90,ENE,72,1.0,3.0,55,0.00,,,0.00,,2013-04-13 23:53:00,
2013-04-13 19:02:00,71.0,56.0,29.90,ESE,111,0.0,2.0,59,0.00,,,0.00,,2013-04-14 00:02:00,
2013-04-13 19:12:00,71.0,56.0,29.90,ESE,111,0.0,2.0,59,0.00,,,0.00,,2013-04-14 00:12:00,
2013-04-13 19:22:00,70.0,56.0,29.90,ESE,108,0.0,1.0,61,0.00,,,0.00,,2013-04-14 00:22:00,
2013-04-13 19:32:00,68.0,53.0,29.90,SE,138,0.0,1.0,59,0.00,,,0.00,,2013-04-14 00:32:00,
2013-04-13 19:42:00,68.0,53.0,29.90,SE,138,0.0,1.0,59,0.00,,,0.00,,2013-04-14 00:42:00,
2013-04-13 19:52:00,68.0,53.0,29.90,SE,138,0.0,1.0,59,0.00,,,0.00,,2013-04-14 00:52:00,
2013-04-13 20:02:00,67.0,53.0,29.89,East,99,0.0,0.0,61,0.00,,,0.00,,2013-04-14 01:02:00,
2013-04-13 20:12:00,67.0,53.0,29.89,East,99,0.0,0.0,61,0.00,,,0.00,,2013-04-14 01:12:00,
2013-04-13 20:22:00,65.0,53.0,29.90,East,99,0.0,0.0,65,0.00,,,0.00,,2013-04-14 01:22:00,
2013-04-13 20:32:00,64.0,52.0,29.90,ESE,102,0.0,0.0,64,0.00,,,0.00,,2013-04-14 01:32:00,
2013-04-13 20:42:00,64.0,52.0,29.90,ESE,102,0.0,0.0,64,0.00,,,0.00,,2013-04-14 01:42:00,
2013-04-13 20:52:00,63.0,51.0,29.91,ESE,102,0.0,0.0,65,0.00,,,0.00,,2013-04-14 01:52:00,
2013-04-13 21:02:00,63.0,51.0,29.91,ESE,102,0.0,1.0,66,0.00,,,0.00,,2013-04-14 02:02:00,
2013-04-13 21:12:00,63.0,51.0,29.91,ESE,102,0.0,1.0,66,0.00,,,0.00,,2013-04-14 02:12:00,
2013-04-13 21:22:00,62.0,51.0,29.92,ESE,102,0.0,1.0,67,0.00,,,0.00,,2013-04-14 02:22:00,
2013-04-13 21:32:00,62.0,52.0,29.92,ESE,107,0.0,1.0,70,0.00,,,0.00,,2013-04-14 02:32:00,
2013-04-13 21:42:00,62.0,52.0,29.92,ESE,107,0.0,1.0,70,0.00,,,0.00,,2013-04-14 02:42:00,
2013-04-13 21:52:00,62.0,52.0,29.92,East,86,0.0,1.0,70,0.00,,,0.00,,2013-04-14 02:52:00,
2013-04-13 22:02:00,62.0,52.0,29.92,East,85,0.0,1.0,71,0.00,,,0.00,,2013-04-14 03:02:00,
2013-04-13 22:12:00,62.0,52.0,29.92,East,85,0.0,1.0,71,0.00,,,0.00,,2013-04-14 03:12:00,
2013-04-13 22:22:00,62.0,53.0,29.93,East,84,0.0,1.0,72,0.00,,,0.00,,2013-04-14 03:22:00,
2013-04-13 22:33:00,62.0,53.0,29.92,East,85,0.0,0.0,72,0.00,,,0.00,,2013-04-14 03:33:00,
2013-04-13 22:42:00,62.0,53.0,29.92,East,85,0.0,0.0,72,0.00,,,0.00,,2013-04-14 03:42:00,
2013-04-13 22:53:00,62.0,53.0,29.92,East,85,0.0,1.0,73,0.00,,,0.00,,2013-04-14 03:53:00,
2013-04-13 23:03:00,62.0,53.0,29.92,East,96,0.0,1.0,73,0.00,,,0.00,,2013-04-14 04:03:00,
2013-04-13 23:12:00,62.0,53.0,29.92,East,96,0.0,1.0,73,0.00,,,0.00,,2013-04-14 04:12:00,
2013-04-13 23:23:00,62.0,54.0,29.91,East,94,0.0,1.0,74,0.00,,,0.00,,2013-04-14 04:23:00,
2013-04-13 23:33:00,62.0,55.0,29.91,East,92,0.0,2.0,77,0.00,,,0.00,,2013-04-14 04:33:00,
2013-04-13 23:42:00,62.0,55.0,29.91,East,92,0.0,2.0,77,0.00,,,0.00,,2013-04-14 04:42:00,
2013-04-13 23:52:00,62.0,55.0,29.89,ESE,105,0.0,3.0,77,0.00,,,0.00,,2013-04-14 04:52:00,